• En España
  • Lista de países
  • Para 7 días
  • Temperatura del agua
  • Mapa Satelital
  • El tiempo en el mapa
  • Informadores
  • user-avatar
    Iniciar sesión

    Tiempo cada hora Samociazek

    Hoy, 23 Julio, Lunes

    Tiempo Temperatura Precipitaciones Viento Presión Humedad
    00:00 +18°C° 0 mm 2 mps 752 mmHg 81%
    01:00 +17°C° 0 mm 2 mps 752 mmHg 82%
    02:00 +18°C° 0 mm 1 mps 752 mmHg 82%
    03:00 +16°C° 0 mm 1 mps 752 mmHg 82%
    04:00 +16°C° 0 mm 1 mps 751 mmHg 82%
    05:00 +18°C° 0 mm 1 mps 752 mmHg 76%
    06:00 +20°C° 0 mm 1 mps 752 mmHg 70%
    07:00 +22°C° 0 mm 1 mps 752 mmHg 64%
    08:00 +23°C° 0 mm 1 mps 752 mmHg 58%
    09:00 +25°C° 0 mm 1 mps 752 mmHg 52%
    10:00 +27°C° 0 mm 1 mps 752 mmHg 46%
    11:00 +27°C° 0 mm 1 mps 752 mmHg 44%
    12:00 +28°C° 0 mm 2 mps 752 mmHg 42%
    13:00 +29°C° 0 mm 2 mps 752 mmHg 41%
    14:00 +29°C° 0 mm 2 mps 752 mmHg 43%
    15:00 +28°C° 0 mm 2 mps 752 mmHg 46%
    16:00 +28°C° 0 mm 2 mps 752 mmHg 48%
    17:00 +27°C° 0,1 mm 2 mps 752 mmHg 55%
    18:00 +26°C° 0,1 mm 3 mps 752 mmHg 63%
    19:00 +24°C° 0,1 mm 3 mps 752 mmHg 70%
    20:00 +23°C° 0 mm 2 mps 752 mmHg 74%
    21:00 +21°C° 0 mm 2 mps 753 mmHg 78%
    22:00 +19°C° 0 mm 2 mps 753 mmHg 82%
    23:00 +19°C° 0 mm 2 mps 753 mmHg 84%

    Mañana, 24 Julio, Martes

    Tiempo Temperatura Precipitaciones Viento Presión Humedad
    00:00 +18°C° 0 mm 2 mps 753 mmHg 85%
    01:00 +17°C° 0 mm 2 mps 753 mmHg 87%
    02:00 +17°C° 0 mm 2 mps 753 mmHg 88%
    03:00 +17°C° 0 mm 2 mps 753 mmHg 89%
    04:00 +16°C° 0 mm 2 mps 753 mmHg 90%
    05:00 +18°C° 0 mm 2 mps 753 mmHg 84%
    06:00 +19°C° 0 mm 2 mps 753 mmHg 79%
    07:00 +21°C° 0 mm 2 mps 753 mmHg 74%
    08:00 +23°C° 0 mm 2 mps 753 mmHg 69%
    09:00 +25°C° 0 mm 2 mps 753 mmHg 63%
    10:00 +27°C° 0 mm 3 mps 753 mmHg 58%
    11:00 +27°C° 0 mm 3 mps 753 mmHg 56%
    12:00 +28°C° 0 mm 3 mps 753 mmHg 55%
    13:00 +28°C° 0 mm 3 mps 752 mmHg 54%
    14:00 +28°C° 0,1 mm 3 mps 752 mmHg 55%
    15:00 +28°C° 0,1 mm 3 mps 752 mmHg 55%
    16:00 +28°C° 0,1 mm 3 mps 752 mmHg 56%
    17:00 +27°C° 0 mm 3 mps 752 mmHg 61%
    18:00 +26°C° 0 mm 2 mps 752 mmHg 67%
    19:00 +25°C° 0 mm 2 mps 752 mmHg 72%
    20:00 +24°C° 0 mm 2 mps 752 mmHg 78%
    21:00 +21°C° 0 mm 2 mps 752 mmHg 83%
    22:00 +20°C° 0 mm 2 mps 753 mmHg 88%
    23:00 +19°C° 0 mm 2 mps 752 mmHg 90%

    Pasado mañana, 25 Julio, Miércoles

    Tiempo Temperatura Precipitaciones Viento Presión Humedad
    00:00 +19°C° 0 mm 2 mps 752 mmHg 92%
    01:00 +18°C° 0 mm 2 mps 752 mmHg 94%
    02:00 +18°C° 0 mm 2 mps 752 mmHg 94%
    03:00 +18°C° 0 mm 2 mps 752 mmHg 95%
    04:00 +18°C° 0 mm 1 mps 753 mmHg 96%
    05:00 +19°C° 0 mm 2 mps 753 mmHg 90%
    06:00 +20°C° 0 mm 2 mps 753 mmHg 84%
    07:00 +23°C° 0 mm 2 mps 753 mmHg 78%
    08:00 +24°C° 0,1 mm 2 mps 753 mmHg 71%
    09:00 +26°C° 0,1 mm 2 mps 753 mmHg 63%
    10:00 +27°C° 0,1 mm 2 mps 753 mmHg 56%
    11:00 +28°C° 0 mm 2 mps 753 mmHg 53%
    12:00 +29°C° 0 mm 3 mps 753 mmHg 50%
    13:00 +29°C° 0 mm 3 mps 752 mmHg 47%
    14:00 +29°C° 0 mm 3 mps 752 mmHg 47%
    15:00 +29°C° 0 mm 3 mps 752 mmHg 48%
    16:00 +29°C° 0 mm 4 mps 752 mmHg 48%
    17:00 +27°C° 0 mm 4 mps 752 mmHg 54%
    18:00 +26°C° 0 mm 3 mps 752 mmHg 60%
    19:00 +24°C° 0 mm 3 mps 752 mmHg 66%
    20:00 +22°C° 0 mm 3 mps 752 mmHg 70%
    21:00 +21°C° 0 mm 3 mps 753 mmHg 75%
    22:00 +19°C° 0 mm 3 mps 753 mmHg 80%
    23:00 +19°C° 0 mm 3 mps 753 mmHg 82%

    26 Julio, Jueves

    Tiempo Temperatura Precipitaciones Viento Presión Humedad
    00:00 +19°C° 0 mm 3 mps 753 mmHg 83%
    01:00 +19°C° 0 mm 3 mps 753 mmHg 85%
    02:00 +18°C° 0 mm 3 mps 753 mmHg 86%
    03:00 +18°C° 0 mm 3 mps 753 mmHg 88%
    04:00 +18°C° 0 mm 3 mps 753 mmHg 89%
    05:00 +20°C° 0 mm 3 mps 753 mmHg 86%
    06:00 +21°C° 0 mm 4 mps 753 mmHg 82%
    07:00 +22°C° 0 mm 4 mps 753 mmHg 78%
    08:00 +25°C° 0,1 mm 4 mps 753 mmHg 73%
    09:00 +26°C° 0,1 mm 5 mps 753 mmHg 67%
    10:00 +28°C° 0,1 mm 5 mps 753 mmHg 62%
    11:00 +28°C° 1 mm 5 mps 753 mmHg 62%
    12:00 +29°C° 1 mm 5 mps 753 mmHg 62%
    13:00 +29°C° 1 mm 5 mps 752 mmHg 62%
    14:00 +29°C° 0,7 mm 5 mps 752 mmHg 63%
    15:00 +29°C° 0,7 mm 5 mps 752 mmHg 64%
    16:00 +29°C° 0,7 mm 5 mps 752 mmHg 65%
    17:00 +28°C° 0,3 mm 5 mps 752 mmHg 69%
    18:00 +26°C° 0,3 mm 4 mps 752 mmHg 74%
    19:00 +25°C° 0,3 mm 4 mps 752 mmHg 78%
    20:00 +23°C° 0,2 mm 4 mps 752 mmHg 81%
    21:00 +23°C° 0,2 mm 4 mps 752 mmHg 85%
    22:00 +22°C° 0,2 mm 4 mps 753 mmHg 88%
    23:00 +21°C° 0,1 mm 4 mps 753 mmHg 90%

    27 Julio, Viernes

    Tiempo Temperatura Precipitaciones Viento Presión Humedad
    00:00 +21°C° 0,1 mm 3 mps 753 mmHg 92%
    01:00 +21°C° 0,1 mm 3 mps 753 mmHg 94%
    02:00 +20°C° 0 mm 3 mps 752 mmHg 95%
    03:00 +20°C° 0 mm 3 mps 752 mmHg 96%
    04:00 +20°C° 0 mm 3 mps 752 mmHg 97%
    05:00 +21°C° 0 mm 3 mps 752 mmHg 93%
    06:00 +22°C° 0 mm 3 mps 753 mmHg 90%
    07:00 +24°C° 0 mm 3 mps 753 mmHg 86%
    08:00 +26°C° 0,7 mm 3 mps 753 mmHg 78%
    09:00 +28°C° 0,7 mm 3 mps 752 mmHg 71%
    10:00 +29°C° 0,7 mm 3 mps 752 mmHg 64%
    11:00 +30°C° 0,5 mm 3 mps 752 mmHg 61%
    12:00 +30°C° 0,5 mm 3 mps 752 mmHg 58%
    13:00 +31°C° 0,5 mm 3 mps 752 mmHg 55%
    14:00 +31°C° 0,1 mm 3 mps 752 mmHg 55%
    15:00 +31°C° 0,1 mm 3 mps 751 mmHg 56%
    16:00 +31°C° 0,1 mm 3 mps 751 mmHg 57%
    17:00 +29°C° 0,3 mm 3 mps 751 mmHg 63%
    18:00 +28°C° 0,3 mm 3 mps 751 mmHg 69%
    19:00 +26°C° 0,3 mm 3 mps 751 mmHg 75%
    20:00 +25°C° 0 mm 3 mps 751 mmHg 79%
    21:00 +24°C° 0 mm 3 mps 751 mmHg 84%
    22:00 +23°C° 0 mm 2 mps 751 mmHg 88%
    23:00 +21°C° 0 mm 2 mps 751 mmHg 90%

    28 Julio, Sábado

    Tiempo Temperatura Precipitaciones Viento Presión Humedad
    00:00 +21°C° 0 mm 2 mps 751 mmHg 91%
    01:00 +21°C° 0 mm 2 mps 751 mmHg 93%
    02:00 +20°C° 0 mm 2 mps 751 mmHg 94%
    03:00 +20°C° 0 mm 2 mps 751 mmHg 94%
    04:00 +20°C° 0 mm 2 mps 751 mmHg 95%
    05:00 +21°C° 0 mm 2 mps 751 mmHg 90%
    06:00 +24°C° 0 mm 2 mps 751 mmHg 85%
    07:00 +25°C° 0 mm 1 mps 751 mmHg 80%
    08:00 +27°C° 0,1 mm 1 mps 751 mmHg 73%
    09:00 +28°C° 0,1 mm 1 mps 751 mmHg 67%
    10:00 +30°C° 0,1 mm 1 mps 751 mmHg 61%
    11:00 +31°C° 0,1 mm 1 mps 751 mmHg 58%
    12:00 +31°C° 0,1 mm 1 mps 751 mmHg 55%
    13:00 +32°C° 0,1 mm 1 mps 751 mmHg 52%
    14:00 +32°C° 0,6 mm 1 mps 751 mmHg 52%
    15:00 +32°C° 0,6 mm 1 mps 751 mmHg 53%
    16:00 +32°C° 0,6 mm 1 mps 751 mmHg 53%
    17:00 +31°C° 0,6 mm 1 mps 751 mmHg 60%
    18:00 +29°C° 0,6 mm 1 mps 751 mmHg 66%
    19:00 +28°C° 0,6 mm 2 mps 751 mmHg 72%
    20:00 +27°C° 0,2 mm 2 mps 752 mmHg 76%
    21:00 +26°C° 0,2 mm 2 mps 752 mmHg 80%
    22:00 +25°C° 0,2 mm 2 mps 752 mmHg 84%
    23:00 +25°C° 0,1 mm 1 mps 752 mmHg 85%
    Mostrar más